Notices

What's New in latest Release from April 7th, 2021:

- Updated Glossary, including Speed of Maximum Gust, and Total Hourly Precipitation

- Updated national and regional climate services offices contacts and prices information

- Addition of station inventory lists for 1981-2010, 1971-2000, and 1961-1990 Normals.

If you haven't already, please take our survey and provide feedback about our website: https://eccc.sondage-survey.ca/f/LanguageSelection.aspx?s=442ca660-fcf1-47c0-95a9-59707d6fd709

Hourly Data Report for December 07, 2018

CARBERRY CS
MANITOBA
Current Station Operator: ECCC - MSC

49°54'20.900" N
99°21'26.800" W
383.50 m
5010547
71170
WZE

Download Data

Hourly Data (December 2018)
Hourly Data Report for December 7, 2018
TIME
LST
Temp Definition
°C
Dew Point Definition
°C
Rel Hum Definition
%
Precip. Amount Definition
mm

Wind Dir Definition
10's deg

Wind Spd Definition
km/h
Visibility Definition
km
Stn Press Definition
kPa
Hmdx Definition


Wind Chill Definition


Weather Definition


00:00 -10.8 -14.2 76 0.0 26 19   97.69   -19 LegendNANA
01:00 -10.6 -13.9 77 0.0 25 9   97.70   -16 LegendNANA
02:00 -10.5 -13.7 77 0.0 24 10   97.68   -16 LegendNANA
03:00 -10.4 -13.5 77 0.0 24 11   97.72   -16 LegendNANA
04:00 -10.2 -13.7 76 0.0 25 11   97.74   -16 LegendNANA
05:00 -11.4 -14.5 78 0.0 23 10   97.73   -17 LegendNANA
06:00 -14.0 -16.3 82 0.0 21 9   97.75   -20 LegendNANA
07:00 -14.3 -16.7 82 0.0 22 10   97.77   -20 LegendNANA
08:00 -15.4 -17.6 84 0.0 24 9   97.78   -21 LegendNANA
09:00 -14.2 -17.2 78 0.0 24 14   97.82   -22 LegendNANA
10:00 -13.5 -17.3 73 0.0 24 11   97.87   -20 LegendNANA
11:00 -12.6 -16.9 70 0.0 24 12   97.91   -19 LegendNANA
12:00 -11.3 -16.1 68 0.0 24 15   97.87   -18 LegendNANA
13:00 -10.8 -15.8 66 0.0 26 19   97.85   -19 LegendNANA
14:00 -10.1 -15.6 64 0.0 25 16   97.82   -17 LegendNANA
15:00 -10.2 -15.9 63 0.0 23 15   97.83   -17 LegendNANA
16:00 -11.1 -16.2 66 0.0 24 14   97.85   -18 LegendNANA
17:00 -12.7 -16.5 73 0.0 23 10   97.89   -18 LegendNANA
18:00 -13.5 -16.7 76 0.0 24 14   97.87   -21 LegendNANA
19:00 -12.8 -15.9 78 0.0 24 15   97.88   -20 LegendNANA
20:00 -12.3 -15.4 78 0.0 24 13   97.87   -19 LegendNANA
21:00 -14.9 -17.0 84 0.0 23 8   97.86   -20 LegendNANA
22:00 -15.3 -17.2 85 0.0 21 10   97.81   -22 LegendNANA
23:00 -15.5 -17.5 85 0.0 22 10   97.77   -22 LegendNANA

Notes on Data Quality.

Legend

  • E = Estimated
  • M = Missing
  • NA = Not Available*
  • [empty] = Indicates an unobserved value
Date modified: